Theta_e
307 308 312 315 315 315 314 314 314 314 314 314 314 311 312 311 309 311 310 309 308 308 307 307 306 306 314 322 319 323 319 318 317 316 322 336 339 338 348 350 355 350 355 358 355 354 354
306 307 309 313 315 314 314 314 314 314 314 314 313 313 311 310 311 312 313 310 309 308 307 307 307 306 319 316 327 323 319 317 313 318 325 336 339 335 345 347 357 356 355 358 355 354 353
306 306 309 314 314 314 313 312 312 312 312 310 311 312 313 313 312 313 313 310 308 307 309 309 309 314 319 318 326 326 321 315 315 318 333 337 338 331 340 343 349 354 357 353 357 356 357
307 306 307 313 314 313 312 311 310 310 310 311 312 312 314 313 313 313 312 309 306 310 310 312 307 318 319 316 321 323 322 319 316 320 333 336 334 328 330 334 345 352 356 362 356 358 358
315 307 306 311 313 312 311 310 311 312 312 313 314 314 314 314 313 311 308 306 310 309 309 307 312 320 322 322 320 319 323 321 318 322 325 329 330 327 327 330 336 350 358 358 354 358 359
322 311 306 308 312 312 311 311 312 313 313 314 313 312 312 312 311 308 306 307 313 321 315 316 317 321 322 325 323 320 322 321 319 323 325 328 324 324 324 326 337 350 355 356 356 360 359
322 319 307 308 310 310 311 312 312 313 313 314 313 311 310 310 309 308 306 319 320 321 324 321 319 326 324 323 322 321 324 322 324 328 327 325 323 324 326 327 330 338 345 354 354 357 363
322 322 308 308 309 311 311 312 313 314 314 314 314 312 310 309 310 309 307 319 322 316 316 323 323 323 324 322 322 323 325 326 326 327 325 324 325 326 328 330 331 332 340 349 355 358 357
323 323 312 308 310 310 312 313 313 314 314 313 314 314 312 311 311 311 312 318 319 317 316 317 317 324 322 320 324 324 324 327 325 325 326 326 327 328 329 327 329 330 336 342 353 355 351
323 323 317 307 310 309 312 313 314 314 314 313 314 315 314 312 313 315 318 320 320 318 315 318 317 318 321 321 325 326 325 326 325 323 324 325 326 327 327 326 326 327 331 336 348 351 355
323 323 322 307 311 309 312 313 314 314 314 313 314 315 314 313 312 315 317 316 317 318 320 320 318 320 319 320 323 326 324 324 325 324 323 323 324 324 325 326 327 328 333 344 347 348 352
324 323 323 308 310 309 312 313 314 315 314 314 314 314 315 317 317 320 321 320 318 319 323 325 319 319 318 318 319 322 324 323 323 324 324 323 323 323 324 325 326 328 328 342 342 348 354
322 322 323 310 309 309 311 313 314 315 314 314 314 314 314 315 317 319 320 318 321 322 326 326 324 322 317 317 318 319 325 325 325 324 324 326 324 324 324 325 324 325 327 339 345 346 344
320 321 322 314 308 310 310 313 314 315 314 314 313 313 315 316 317 319 321 320 328 326 325 324 324 323 322 317 318 320 323 325 325 325 325 327 324 323 325 323 324 325 331 335 346 344 338
320 321 323 318 307 311 310 312 313 314 315 314 312 316 318 317 319 320 321 329 330 325 324 323 320 319 320 319 320 320 323 325 325 324 325 324 324 324 325 327 328 328 332 330 331 334 334
321 322 323 322 307 311 310 312 313 314 314 315 313 318 318 321 322 323 325 324 327 324 324 321 320 323 326 324 326 329 327 325 325 325 326 328 330 324 325 327 329 328 332 331 329 338 339
321 322 323 323 308 311 309 312 313 314 314 315 317 320 323 323 323 324 327 326 324 323 323 320 321 323 324 326 326 329 332 328 325 326 324 325 329 329 327 325 329 333 333 332 329 332 335
321 321 322 322 308 311 309 312 313 314 314 317 318 325 323 322 323 325 327 325 322 321 318 320 320 322 327 328 327 330 330 327 324 324 323 328 326 331 332 332 331 333 332 331 331 333 337
320 321 322 318 307 311 309 311 312 313 315 316 321 325 320 317 325 328 326 324 325 321 320 320 320 319 322 327 328 325 327 324 324 323 323 327 327 332 331 330 327 328 329 328 327 328 332
320 322 322 309 308 311 309 311 311 312 315 317 323 326 321 320 322 323 324 325 323 319 319 320 320 319 318 323 323 324 324 322 320 323 326 324 325 331 334 330 326 326 326 325 326 328 344
320 322 322 318 308 311 310 311 311 312 316 317 325 321 317 318 318 318 319 320 319 320 319 320 323 322 319 323 323 323 321 320 319 321 323 324 327 325 328 329 328 325 325 326 327 343 350
319 321 322 321 308 310 311 310 311 311 320 324 321 320 321 317 320 320 317 318 318 316 317 319 322 322 320 322 322 325 322 321 323 322 322 321 325 326 330 328 323 323 325 326 326 340 344
316 318 321 321 312 310 311 309 311 311 316 323 323 322 326 323 319 317 317 317 316 319 317 316 319 325 322 321 320 319 318 319 322 323 324 324 325 327 328 323 322 325 324 323 327 340 343
318 319 320 320 307 311 311 308 310 310 309 315 322 321 327 325 318 318 316 316 317 318 319 317 318 322 318 317 318 318 318 319 321 320 318 325 326 325 326 324 327 323 320 321 323 341 340
318 318 319 307 308 311 311 308 309 309 310 311 320 322 328 329 318 317 317 318 318 317 316 316 316 316 315 316 319 322 320 321 321 321 319 318 324 325 324 322 323 323 322 321 330 342 339
318 317 307 306 309 311 311 308 308 309 309 312 320 318 325 331 318 317 319 319 321 319 319 317 316 315 316 318 320 324 326 330 326 321 317 316 322 324 325 326 326 324 320 318 321 342 336
317 306 305 307 309 312 311 309 308 309 310 311 319 319 323 329 319 321 322 321 320 322 320 318 317 317 316 322 324 330 331 330 331 329 320 318 321 321 322 325 326 322 319 318 323 331 332
318 308 305 307 308 311 312 312 312 313 313 315 320 320 321 325 322 319 319 322 322 321 321 320 319 319 319 325 328 329 329 331 328 325 325 325 322 323 321 325 329 327 325 329 328 322 324
318 312 305 307 308 310 312 313 313 313 313 316 323 321 320 324 325 319 319 318 319 318 319 318 318 320 317 326 325 326 328 324 323 328 322 326 324 329 330 328 325 324 324 322 320 322 320
Wind_Speed
21 21 19 18 18 18 18 17 17 17 17 17 17 17 16 16 15 16 16 16 16 15 14 11 11 8 3 4 10 6 7 19 17 16 19 14 16 13 13 6 6 4 1 4 17 15 13
22 22 22 20 19 19 19 19 19 18 17 17 17 17 18 18 18 18 17 16 15 14 13 10 7 5 3 4 8 10 12 19 14 18 18 18 10 13 11 5 8 4 8 14 18 12 18
23 25 24 21 20 20 20 20 20 19 19 19 19 19 18 19 19 21 20 17 14 12 12 8 6 2 5 13 7 7 14 18 19 20 9 22 26 10 10 11 9 15 6 10 13 13 20
23 25 25 21 20 20 20 19 19 18 18 19 21 22 20 20 21 21 20 16 12 10 7 6 5 4 7 13 12 13 14 14 17 19 23 23 23 9 8 10 5 6 7 5 12 20 18
23 24 26 23 20 20 19 18 18 19 21 23 23 21 21 20 20 19 17 11 5 5 3 4 5 5 7 4 11 15 16 17 18 21 25 24 16 8 8 6 7 7 7 13 16 18 17
25 25 27 26 20 18 17 16 19 21 23 24 23 21 19 19 19 16 11 5 4 1 2 2 9 3 8 11 14 18 16 20 15 13 15 11 4 4 5 2 7 8 10 5 2 13 19
24 24 25 26 22 17 16 18 21 24 26 25 21 19 19 17 13 12 6 4 2 2 8 9 8 6 13 18 16 16 22 19 15 8 8 8 3 6 10 11 17 15 9 10 17 7 14
24 24 25 25 22 15 16 18 20 23 25 23 19 15 12 11 13 10 4 4 9 12 7 15 20 17 25 13 8 11 22 9 8 8 9 6 8 10 13 17 19 20 8 6 12 10 5
22 24 23 25 22 17 18 21 23 24 24 21 19 17 13 11 13 15 9 14 12 15 5 14 17 16 13 11 10 11 9 10 9 11 14 9 13 18 18 17 19 18 14 15 8 10 16
19 21 23 24 23 17 19 21 23 25 23 22 20 17 15 13 10 6 11 15 20 14 3 7 7 11 12 5 5 14 17 9 7 12 10 11 19 15 17 15 15 12 11 14 20 11 7
18 21 23 23 23 18 19 22 25 24 23 21 20 17 14 12 16 7 17 14 12 8 4 5 10 11 9 7 3 9 21 11 14 8 8 11 13 17 16 17 13 13 5 6 12 9 5
19 20 21 22 23 19 19 22 24 25 25 23 19 18 15 9 11 22 21 23 12 2 3 9 5 7 8 9 12 8 12 7 8 13 11 12 14 14 16 13 14 13 11 4 2 4 4
20 21 21 22 23 21 20 23 25 26 26 25 21 20 20 11 7 20 24 7 2 2 13 11 7 9 10 9 14 11 14 10 11 5 8 11 17 15 17 7 10 11 5 3 4 4 7
22 21 21 22 24 23 21 24 27 29 28 26 25 24 19 22 22 18 21 3 3 3 4 8 7 15 13 9 12 14 12 9 11 13 6 8 9 15 12 9 10 9 7 5 7 7 6
22 20 20 21 23 23 21 24 29 31 32 31 26 13 11 23 13 14 3 4 1 2 7 9 14 11 8 5 7 10 11 13 13 15 9 5 11 9 16 7 5 8 8 9 6 7 3
21 19 20 22 23 23 21 24 28 32 33 34 13 6 18 22 17 7 5 1 4 5 10 15 14 6 9 9 7 17 9 6 10 5 4 2 4 11 16 8 10 10 3 8 2 2 4
22 21 20 21 23 23 21 24 28 34 34 22 2 3 6 12 12 7 3 3 9 16 19 6 9 6 6 6 7 5 12 11 20 7 8 7 2 10 12 10 13 3 1 3 2 3 4
22 23 22 20 22 23 21 23 27 31 32 17 7 3 9 9 4 4 5 5 6 4 3 2 7 6 9 5 6 5 1 4 17 15 8 1 3 6 6 5 6 4 7 4 4 8 1
23 24 22 18 22 22 21 23 26 30 32 9 3 4 9 7 4 3 2 6 10 11 3 3 2 2 6 6 3 2 6 5 19 9 3 5 3 4 6 4 9 4 5 4 4 2 5
21 22 18 20 22 23 22 22 28 29 32 7 3 3 2 4 5 6 3 4 9 3 3 3 4 1 3 3 8 5 7 8 10 9 3 3 5 7 2 4 3 4 9 8 3 1 3
20 19 18 19 21 23 23 22 27 30 30 0 3 3 0 3 5 4 4 2 6 4 4 1 3 5 2 1 3 5 8 6 7 0 3 2 2 12 11 10 13 16 8 11 5 6 5
20 18 17 17 19 20 22 20 25 31 24 3 3 4 6 3 3 2 4 5 11 11 10 13 12 12 4 5 2 6 7 5 6 6 9 4 3 8 7 11 13 13 13 15 3 12 11
20 19 17 15 18 19 19 18 21 27 24 6 10 11 3 7 6 9 5 6 7 5 5 9 8 3 12 8 8 7 8 3 3 4 2 8 2 4 5 8 10 5 4 5 9 14 19
20 19 13 12 14 16 17 16 18 21 23 7 9 10 3 4 7 6 11 11 9 8 6 8 9 7 5 9 8 6 8 1 4 3 2 3 6 2 5 8 4 3 9 9 7 17 21
20 14 10 12 13 14 16 15 14 17 19 19 11 5 3 5 6 7 7 5 7 5 6 5 6 2 7 6 3 3 2 2 3 3 5 4 1 3 2 3 4 15 14 10 5 9 19
15 9 9 11 11 13 14 14 13 15 18 17 6 12 3 4 5 5 3 2 3 3 4 5 4 4 5 2 2 1 3 6 4 2 5 5 1 4 1 2 3 2 9 14 5 6 16
9 8 10 12 9 10 12 12 12 15 16 16 7 12 4 2 5 7 5 5 5 5 2 4 1 2 3 2 3 3 2 5 3 8 2 3 2 3 1 2 3 4 8 10 6 3 8
9 9 11 11 10 9 10 10 11 14 16 16 8 7 7 3 2 6 6 6 5 6 5 2 2 3 2 5 4 2 3 2 3 5 3 4 2 2 3 2 2 9 8 5 2 7 15
9 8 10 11 10 9 9 10 10 12 14 13 5 14 12 3 1 3 10 7 7 7 3 2 1 3 2 4 4 3 1 0 3 2 4 3 3 0 3 3 2 8 8 7 8 7 10
Wind_Direction
3 358 351 346 343 340 338 336 334 332 330 328 325 323 322 320 321 317 316 313 312 310 306 303 302 312 15 221 250 235 160 182 196 192 207 229 252 228 235 205 120 144 234 168 134 137 135
1 358 351 346 342 339 337 335 333 330 329 326 324 322 321 323 319 316 313 310 311 310 301 297 292 294 263 247 180 167 169 177 194 187 214 230 252 236 250 286 175 185 267 182 143 155 134
358 357 351 345 340 338 337 333 332 331 334 332 329 323 318 317 316 315 311 310 310 302 296 292 271 218 269 246 149 156 177 189 181 193 215 233 248 263 256 264 185 168 233 150 152 167 133
357 356 352 344 341 339 338 339 339 342 337 331 325 321 318 319 317 313 309 309 310 303 296 273 200 200 250 249 276 203 175 189 197 202 223 241 255 270 276 289 261 202 118 231 173 171 155
357 354 354 348 341 341 340 341 343 341 336 332 328 324 322 320 317 312 308 311 310 357 357 173 145 230 258 224 216 234 176 185 203 201 231 253 260 252 305 288 279 220 224 217 181 175 154
358 356 355 351 343 344 345 351 345 341 336 334 331 327 325 324 322 317 316 315 275 307 92 178 266 250 257 220 197 219 183 194 191 197 227 241 252 242 280 271 234 219 227 233 206 178 168
354 355 355 354 352 353 354 351 347 341 336 336 336 334 330 329 326 328 336 343 184 199 234 208 192 237 289 223 169 212 194 201 190 194 204 226 183 212 250 245 258 261 236 165 187 353 132
349 354 354 354 353 354 351 348 345 341 337 336 335 338 338 332 326 328 299 257 266 316 297 229 246 266 267 262 174 198 199 196 188 199 197 197 217 218 233 246 254 264 269 339 111 177 96
346 352 352 353 353 351 349 348 346 343 339 337 333 330 328 320 311 299 249 252 286 288 283 284 252 229 255 264 186 195 182 213 184 212 206 212 215 221 235 236 243 254 255 206 165 98 69
343 348 350 353 351 346 347 347 347 346 342 338 333 324 318 315 310 301 248 271 268 307 280 250 184 232 224 262 226 188 198 194 208 214 214 218 248 220 230 244 232 252 247 250 133 148 164
341 346 349 350 351 344 346 347 347 347 343 337 328 321 312 311 297 299 287 336 322 287 288 135 140 156 171 181 221 206 188 220 234 206 202 235 220 241 236 238 234 246 231 176 170 174 112
339 342 346 348 349 344 343 346 346 345 342 335 326 314 306 308 283 282 300 309 303 274 279 322 131 172 171 202 239 243 175 205 258 259 255 235 246 238 246 228 247 247 261 159 175 141 278
343 342 345 346 347 344 342 344 345 343 339 333 326 312 294 261 246 299 316 291 300 280 350 337 4 317 176 196 224 240 189 182 227 220 261 255 242 257 249 252 246 244 246 127 259 215 232
345 341 344 346 347 345 341 345 344 343 342 332 325 310 286 272 277 281 305 309 305 336 253 288 294 313 304 191 209 229 197 185 219 249 255 236 253 239 256 223 223 239 192 166 185 220 228
345 340 341 344 346 345 342 344 345 342 343 336 330 317 265 271 263 261 303 49 325 258 297 302 317 306 305 309 334 232 196 192 201 227 237 259 241 240 239 226 224 266 253 229 252 285 171
344 339 341 343 344 345 342 346 346 343 345 338 324 286 265 258 223 213 70 225 265 249 286 297 291 21 17 3 44 9 323 131 212 229 16 276 288 235 233 182 226 222 269 252 325 230 230
343 345 341 341 344 344 342 346 350 346 348 350 281 265 270 211 140 62 80 270 284 270 271 320 25 50 71 36 59 46 349 332 357 356 340 339 100 291 260 197 210 202 220 334 155 188 179
340 341 341 341 342 345 342 346 350 351 353 356 298 285 245 154 83 121 146 232 269 237 335 315 72 55 78 356 46 124 100 242 308 310 332 27 285 285 275 319 306 187 176 217 147 284 51
344 346 345 347 344 345 343 345 350 353 356 355 282 269 228 189 153 199 123 257 249 285 110 56 74 75 105 168 116 334 180 233 282 301 5 340 323 301 328 336 269 258 248 219 255 288 252
343 348 351 348 347 346 343 346 347 351 351 345 289 303 360 23 104 137 112 226 261 206 263 266 148 2 197 174 144 190 202 207 269 151 119 23 341 341 250 261 307 246 260 265 239 25 59
341 345 346 343 347 346 343 346 349 348 350 246 228 304 203 20 350 76 27 290 324 99 350 282 74 332 245 99 312 213 191 170 233 177 252 82 56 282 283 286 291 286 220 241 234 151 109
339 338 344 336 340 344 345 346 352 354 0 297 4 357 343 340 247 307 72 21 41 24 11 2 22 342 106 70 91 324 360 36 52 4 65 84 224 330 314 265 290 302 206 232 194 126 125
338 336 338 332 335 343 346 344 355 360 18 348 346 340 344 278 342 73 47 51 47 25 26 32 7 52 50 13 340 326 314 317 99 351 47 128 2 335 285 294 297 76 302 76 58 99 123
335 331 331 333 342 344 348 348 349 358 9 344 319 331 314 323 72 40 54 55 43 16 23 33 17 60 347 316 298 304 287 288 46 113 31 84 133 107 283 324 27 331 2 9 57 115 108
337 335 340 344 346 350 352 349 348 349 357 351 337 5 323 315 125 110 87 135 157 183 82 40 21 4 290 292 310 274 269 11 285 269 68 76 110 95 222 329 341 15 9 9 69 104 129
352 357 354 342 350 356 359 354 349 349 352 354 17 17 309 312 40 80 144 321 308 174 113 99 105 304 309 265 263 323 26 12 298 130 47 1 103 113 55 21 9 332 358 348 357 124 135
342 346 342 340 354 2 4 360 358 354 355 347 316 9 325 302 38 19 21 24 4 347 81 95 19 211 268 352 40 49 31 344 338 1 347 328 12 129 169 144 109 32 11 336 56 275 152
318 324 337 339 344 1 2 4 3 360 360 356 314 19 28 318 359 32 25 25 8 10 40 324 318 337 346 39 61 36 48 42 335 291 350 356 65 339 336 212 155 327 36 74 234 22 73
310 308 328 336 338 350 358 354 1 360 359 0 320 5 345 233 19 8 67 38 22 340 1 292 360 46 14 57 53 113 75 222 261 311 12 40 82 41 75 107 156 41 76 58 65 71 61